Weather History for Mineral Wells, TX

Change the Weather History Date:

Tuesday, March 11, 2014

  Actual Average Record
Temperature  
Mean Temperature 70 °F -  
Max Temperature 90 °F 62 °F 90 °F (2014)
Min Temperature 50 °F 42 °F 26 °F (1998)
Cooling Degree Days 4    
Growing Degree Days 20 (Base 50)    
Moisture  
Dew Point 43 °F    
Average Humidity 54    
Maximum Humidity 96    
Minimum Humidity 10    
Precipitation  
Precipitation 0.00 in - - ()
Sea Level Pressure  
Sea Level Pressure 29.64 in    
Wind  
Wind Speed 10 mph (South)    
Max Wind Speed 30 mph    
Max Gust Speed 41 mph    
Visibility 10 miles    
Events      
Averages and records for this station are not official NWS values.
T = Trace of Precipitation, MM = Missing Value Source: NWS Daily Summary

Daily Weather History Graph

Daily Weather History Graph

Search for Another Location

Airport:

Trip Planner

Search our weather history database for the weather conditions in past years. The results will help you decide how hot, cold, wet, or windy it might be!

Date:

Astronomy

Mar. 11, 2014 Rise Set
Actual Time 7:47 AM CDT 7:37 PM CDT
Civil Twilight 7:23 AM CDT 8:01 PM CDT
Nautical Twilight 6:54 AM CDT 8:30 PM CDT
Astronomical Twilight 6:25 AM CDT 8:59 PM CDT
Moon 3:25 PM CDT (3/11) 4:30 AM CDT (3/11)
Length of Visible Light 12h 38m
Length of Day
11h 49m
Waxing Gibbous, 78% of the Moon is Illuminated
Mar 11
Waxing Gibbous
Mar 16
Full
Mar 23
Last Quarter
Mar 30
New
Apr 7
First Quarter

Hourly Weather History & Observations

Time (CDT) Temp. Dew Point Humidity Pressure Visibility Wind Dir Wind Speed Gust Speed Precip Events Conditions
12:53 AM 60.1 °F 53.1 °F 78% 29.79 in 10.0 mi South 8.1 mph - N/A   Clear
1:53 AM 57.9 °F 52.0 °F 81% 29.77 in 10.0 mi SSE 9.2 mph - N/A   Clear
2:53 AM 55.9 °F 51.1 °F 84% 29.75 in 10.0 mi SSE 5.8 mph - N/A   Clear
3:53 AM 53.1 °F 50.0 °F 89% 29.72 in 10.0 mi SSE 6.9 mph - N/A   Clear
4:53 AM 53.1 °F 50.0 °F 89% 29.70 in 10.0 mi SE 8.1 mph - N/A   Clear
5:53 AM 52.0 °F 50.0 °F 93% 29.68 in 10.0 mi SE 6.9 mph - N/A   Clear
6:53 AM 52.0 °F 50.0 °F 93% 29.68 in 10.0 mi SSE 10.4 mph - N/A   Clear
7:53 AM 50.0 °F 48.9 °F 96% 29.66 in 10.0 mi SE 6.9 mph - N/A   Clear
8:53 AM 53.1 °F 52.0 °F 96% 29.66 in 10.0 mi SE 6.9 mph - N/A   Clear
9:53 AM 59.0 °F 52.0 °F 78% 29.65 in 10.0 mi South 10.4 mph - N/A   Clear
10:53 AM 64.0 °F 51.1 °F 63% 29.65 in 10.0 mi SSW 12.7 mph - N/A   Clear
11:53 AM 70.0 °F 50.0 °F 49% 29.62 in 10.0 mi South 12.7 mph - N/A   Clear
12:53 PM 75.0 °F 48.0 °F 38% 29.58 in 10.0 mi SSW 12.7 mph - N/A   Clear
1:53 PM 79.0 °F 46.0 °F 31% 29.54 in 10.0 mi South 15.0 mph - N/A   Clear
2:53 PM 82.9 °F 43.0 °F 24% 29.50 in 10.0 mi SW 16.1 mph 23.0 mph N/A   Clear
3:53 PM 86.0 °F 41.0 °F 20% 29.48 in 10.0 mi SW 11.5 mph - N/A   Clear
4:53 PM 88.0 °F 33.1 °F 14% 29.46 in 10.0 mi West 11.5 mph 19.6 mph N/A   Clear
5:53 PM 89.1 °F 25.0 °F 10% 29.45 in 10.0 mi NW 12.7 mph 18.4 mph N/A   Clear
6:53 PM 84.9 °F 26.1 °F 12% 29.48 in 10.0 mi NW 6.9 mph - N/A   Clear
7:53 PM 79.0 °F 26.1 °F 14% 29.52 in 10.0 mi NNW 3.5 mph - N/A   Clear
8:53 PM 73.9 °F 32.0 °F 21% 29.61 in 10.0 mi North 18.4 mph 34.5 mph N/A   Clear
9:53 PM 66.0 °F 36.0 °F 33% 29.70 in 10.0 mi North 23.0 mph 41.4 mph N/A   Clear
10:53 PM 59.0 °F 35.1 °F 41% 29.78 in 10.0 mi North 24.2 mph 38.0 mph N/A   Clear
11:53 PM 53.1 °F 34.0 °F 48% 29.87 in 10.0 mi North 29.9 mph 38.0 mph N/A   Clear